Regional Weather Roundup
Issued by NWS Green Bay, WI

Home | Current Version | Previous Version | Text Only | Print | Product List | Glossary On
Versions: 1 2 3 4 5 6 7 8 9 10 11 12 13 14 15 16 17 18 19 20 21 22 23 24 25 26 27 28 29 30 31 32 33 34 35 36 37 38 39 40 41 42 43 44 45 46 47 48 49 50
000
ASUS43 KGRB 061110
RWRGRB

NORTH-CENTRAL AND NORTHEAST WISCONSIN REGIONAL WEATHER ROUNDUP
NATIONAL WEATHER SERVICE GREEN BAY WI
600 AM CDT WED MAY 06 2015

WIZ005-009-010>012-018-019-061200-
NORTH CENTRAL WISCONSIN

CITY           SKY/WX    TMP DP  RH WIND       PRES   REMARKS
IRONWOOD       CLOUDY    54  28  37 SE6       30.14S
MANITOWISH WTR CLOUDY    51  30  44 SE7       30.18S
ARBOR VITAE    CLOUDY    52  32  46 S8        30.18F
EAGLE RIVER    CLOUDY    49  29  44 S3        30.20S
LAND O LAKES   CLOUDY    40  38  93 CALM      30.21S
RHINELANDER    LGT RAIN  48  37  65 SE6       30.20S
PHILLIPS       DRIZZLE   46  44  90 SE7       30.16S
ANTIGO         CLOUDY    49  36  59 SE5       30.20S
TOMAHAWK       CLOUDY    45  41  86 CALM      30.19F
MERRILL        RAIN      46  43  90 SE5       30.20S
$$

WIZ013-073-061200-
NORTHEAST WISCONSIN

CITY           SKY/WX    TMP DP  RH WIND       PRES   REMARKS
IRON MOUNTAIN  MOCLDY    40  35  83 CALM      30.21S
MARINETTE      CLOUDY    48  37  66 CALM      30.22S
OCONTO         CLOUDY    49  43  79 N3        30.21F
$$

WIZ017-030-035>037-045-061200-
CENTRAL WISCONSIN

CITY           SKY/WX    TMP DP  RH WIND       PRES   REMARKS
MEDFORD        CLOUDY    46  44  90 E6        30.17S
WAUSAU         LGT RAIN  48  43  82 E6        30.19R
MOSINEE        NOT AVBL
MARSHFIELD     CLOUDY    51  46  83 E9        30.17S
WISC RAPIDS    CLOUDY    51  44  77 E8        30.18F
STEVENS POINT  CLOUDY    47  41  79 E5        30.19S
WAUPACA        CLOUDY    54  40  60 E5        30.20S
SHAWANO        LGT RAIN  50  43  76 SE3       30.21S
CLINTONVILLE   LGT RAIN  50  46  87 CALM      30.21S
$$

WIZ038-039-048-051-061200-
FOX VALLEY

CITY           SKY/WX    TMP DP  RH WIND       PRES   REMARKS
NWS GREEN BAY  LGT RAIN  52  40  63 E3        30.21S
APPLETON       MOCLDY    52  37  58 E7        30.21R
OSHKOSH        MOCLDY    50  44  80 SE3       30.19R
FOND DU LAC    MOCLDY    49  43  80 CALM      30.19S
$$

WIZ022-050-052-061200-
EAST CENTRAL WISCONSIN

CITY           SKY/WX    TMP DP  RH WIND       PRES   REMARKS
STURGEON BAY   CLOUDY    48  34  57 CALM      30.25S
MANITOWOC      CLOUDY    47  40  76 SE5       30.22S
SHEBOYGAN      CLOUDY    46  42  86 CALM      30.21S
$$

LMZ563-521-522-541>543-061200-
LAKESHORE

STATION/POSITION TIME  TEMP    WIND        PRES    VSBY  WAVE
                       AIR SEA DIR/SP/G                  HT/PER
                 (UTC) (F)     (DEG/KT/KT) (MB)    (MI)  (FT/S)
SHEBOYGAN LKSHOR 1100   44      80/  2/  4 1023.7R
KEWAUNEE LKSHORE 1100   44      50/  2/  3 1022.4S
NORTHPORT PIER   1100   45     180/  3/  5 1023.7R
SISTER BAY LKSHO 1100   46        CALM       N/A
CHAMBERS ISLAND  1100   45        CALM     1023.4S
MENOMINEE LKSHOR 1100   51     160/  5/  6 1023.8R
$$


USA.gov is the U.S. government's official web portal to all federal, state and local government web resources and services.